| time (UTC) | temp C | wind direction | speed KPH | gust KPH | rain 1hr cm | rain 24hr cm | rain mn cm | humidity % | barometer mb |
| 20260504045332 | 10 | 254 | 0.0 | 0.0 | 0.00 | 0.00 | 0.00 | 99 | 1012.3 |
| 20260504043832 | 10 | 254 | 0.0 | 0.0 | 0.00 | 0.00 | 0.00 | 99 | 1012.4 |
| 20260504042331 | 10 | 197 | 3.2 | 6.4 | 0.00 | 0.00 | 0.00 | 99 | 1012.4 |
| 20260504040832 | 10 | 182 | 3.2 | 6.4 | 0.00 | 0.00 | 0.00 | 99 | 1012.4 |
| 20260504035331 | 10 | 186 | 3.2 | 6.4 | 0.00 | 0.00 | 0.00 | 99 | 1012.3 |
| 20260504033830 | 10 | 183 | 6.4 | 6.4 | 0.00 | 0.00 | 0.00 | 99 | 1012.4 |
| 20260504032330 | 10 | 177 | 3.2 | 6.4 | 0.00 | 0.00 | 0.00 | 99 | 1012.2 |
| 20260504030830 | 10 | 194 | 3.2 | 3.2 | 0.00 | 0.00 | 0.00 | 99 | 1012.1 |
| 20260504025330 | 10 | 199 | 3.2 | 3.2 | 0.00 | 0.00 | 0.00 | 98 | 1012.0 |
| 20260504023830 | 10 | 203 | 3.2 | 3.2 | 0.00 | 0.00 | 0.00 | 99 | 1011.9 |
| 20260504022330 | 10 | 195 | 0.0 | 3.2 | 0.00 | 0.00 | 0.00 | 98 | 1011.8 |
| 20260504020829 | 10 | 196 | 0.0 | 3.2 | 0.00 | 0.00 | 0.00 | 99 | 1011.8 |
| 20260504015329 | 11 | 211 | 3.2 | 6.4 | 0.00 | 0.00 | 0.00 | 99 | 1011.8 |
| 20260504013829 | 11 | 217 | 3.2 | 6.4 | 0.00 | 0.00 | 0.00 | 99 | 1011.7 |
| 20260504012329 | 11 | 229 | 3.2 | 9.7 | 0.00 | 0.00 | 0.00 | 99 | 1011.7 |
| 20260504010828 | 11 | 238 | 6.4 | 12.9 | 0.00 | 0.00 | 0.00 | 98 | 1011.8 |
| 20260504005328 | 12 | 238 | 9.7 | 17.7 | 0.00 | 0.00 | 0.00 | 97 | 1011.8 |
| 20260504003827 | 12 | 238 | 9.7 | 17.7 | 0.00 | 0.00 | 0.00 | 97 | 1011.8 |
| 20260504002327 | 12 | 217 | 9.7 | 12.9 | 0.00 | 0.00 | 0.00 | 98 | 1011.7 |
| 20260504000827 | 12 | 220 | 6.4 | 9.7 | 0.00 | 0.00 | 0.00 | 98 | 1011.7 |
| 20260503235326 | 12 | 218 | 6.4 | 9.7 | 0.00 | 0.00 | 0.00 | 99 | 1011.8 |
| 20260503233826 | 11 | 205 | 6.4 | 9.7 | 0.00 | 0.00 | 0.00 | 99 | 1011.7 |
| 20260503232325 | 11 | 209 | 6.4 | 9.7 | 0.00 | 0.00 | 0.00 | 98 | 1011.5 |
| 20260503230825 | 12 | 208 | 6.4 | 9.7 | 0.00 | 0.00 | 0.00 | 97 | 1011.4 |
| 20260503225323 | 12 | 207 | 6.4 | 9.7 | 0.00 | 0.00 | 0.00 | 97 | 1011.4 |
| 20260503223823 | 12 | 197 | 6.4 | 9.7 | 0.00 | 0.00 | 0.00 | 97 | 1011.4 |
| 20260503222323 | 12 | 196 | 6.4 | 9.7 | 0.00 | 0.00 | 0.00 | 97 | 1011.4 |
| 20260503220823 | 13 | 192 | 3.2 | 6.4 | 0.00 | 0.00 | 0.00 | 97 | 1011.4 |
| 20260503215322 | 12 | 194 | 3.2 | 6.4 | 0.00 | 0.00 | 0.00 | 97 | 1011.4 |
| 20260503213822 | 12 | 194 | 3.2 | 9.7 | 0.00 | 0.00 | 0.00 | 97 | 1011.3 |
| 20260503212322 | 12 | 195 | 6.4 | 9.7 | 0.00 | 0.00 | 0.00 | 97 | 1011.3 |
| 20260503210822 | 13 | 198 | 6.4 | 9.7 | 0.00 | 0.00 | 0.00 | 96 | 1011.4 |
| 20260503205320 | 13 | 198 | 6.4 | 9.7 | 0.00 | 0.00 | 0.00 | 96 | 1011.4 |
| 20260503203820 | 13 | 199 | 6.4 | 12.9 | 0.00 | 0.00 | 0.00 | 96 | 1011.5 |
| 20260503202320 | 13 | 200 | 9.7 | 12.9 | 0.00 | 0.00 | 0.00 | 95 | 1011.4 |
| 20260503200820 | 13 | 196 | 9.7 | 12.9 | 0.00 | 0.00 | 0.00 | 95 | 1011.3 |
| 20260503195320 | 13 | 194 | 9.7 | 12.9 | 0.00 | 0.00 | 0.00 | 95 | 1011.3 |
| 20260503193821 | 13 | 197 | 9.7 | 12.9 | 0.00 | 0.00 | 0.00 | 95 | 1011.3 |
| 20260503192319 | 13 | 201 | 9.7 | 17.7 | 0.00 | 0.00 | 0.00 | 94 | 1011.2 |
| 20260503190820 | 13 | 203 | 9.7 | 17.7 | 0.00 | 0.00 | 0.00 | 94 | 1011.1 |
| 20260503185319 | 13 | 202 | 9.7 | 12.9 | 0.00 | 0.00 | 0.00 | 95 | 1011.0 |
| 20260503183819 | 13 | 201 | 6.4 | 17.7 | 0.00 | 0.00 | 0.00 | 96 | 1010.8 |
| 20260503182319 | 13 | 200 | 9.7 | 20.9 | 0.00 | 0.00 | 0.00 | 95 | 1010.7 |
| 20260503180818 | 13 | 203 | 12.9 | 20.9 | 0.00 | 0.00 | 0.00 | 94 | 1010.8 |
| 20260503175316 | 13 | 190 | 9.7 | 17.7 | 0.00 | 0.00 | 0.00 | 95 | 1010.7 |
| 20260503173817 | 13 | 194 | 9.7 | 20.9 | 0.00 | 0.00 | 0.00 | 94 | 1010.7 |
| 20260503172315 | 13 | 198 | 9.7 | 20.9 | 0.00 | 0.00 | 0.00 | 94 | 1010.8 |
| 20260503170814 | 13 | 180 | 9.7 | 20.9 | 0.00 | 0.00 | 0.00 | 95 | 1010.7 |
| 20260503150812 | 16 | 206 | 17.7 | 27.4 | 0.00 | 0.00 | 0.00 | 68 | 1010.2 |
| 20260503130805 | 20 | 215 | 12.9 | 27.4 | 0.00 | 0.00 | 0.00 | 68 | 1010.2 |
| 20260503110801 | 20 | 177 | 12.9 | 24.1 | 0.00 | 0.00 | 0.00 | 65 | 1010.3 |
| 20260503080754 | 17 | 145 | 9.7 | 12.9 | 0.00 | 0.00 | 0.00 | 79 | 1011.1 |